Regional Weather Roundup
Issued by NWS Bismarck, ND

Home | Current Version | Previous Version | Text Only | Print | Product List | Glossary On
Versions: 1 2 3 4 5 6 7 8 9 10 11 12 13 14 15 16 17 18 19 20 21 22 23 24 25 26 27 28 29 30 31 32 33 34 35 36 37 38 39 40 41 42 43 44 45 46 47 48 49 50
000
ASUS43 KBIS 260901
RWRBIS

NWR BROADCAST TEXT
NATIONAL WEATHER SERVICE BISMARCK ND
400 AM CDT TUE MAY 26 2015

NOTE: "FAIR" INDICATES FEW OR NO CLOUDS BELOW 12,000 FEET WITH NO
SIGNIFICANT WEATHER AND/OR OBSTRUCTIONS TO VISIBILITY.


CITY           SKY/WX    TMP DP  RH WIND       PRES   REMARKS
WILLISTON      CLEAR     48  46  93 SW5       29.92R
MINOT          CLEAR     59  46  62 W13       29.86R
MINOT AFB      CLEAR     55  52  89 W9        29.85R
BISMARCK       PTCLDY    52  50  93 W7        29.90F
DICKINSON      CLEAR     46  43  89 W7        29.92S
GARRISON         N/A     52  47  83 W9        29.89S
HETTINGER ARPT FOG       41  40  96 W3        29.96S VSB 1/2
JAMESTOWN      PTCLDY    53  51  93 S3        29.83F
CARRINGTON     FAIR      57  55  94 W12       29.84F
HAZEN          PTSUNNY   48  46  93 SW6       29.92S
OAKES            N/A     55  55 100 SW7       29.88S
STANLEY        FAIR      52  52 100 W7        29.91R
$$

CITY           SKY/WX    TMP DP  RH WIND       PRES   REMARKS
GRAND FORKS    CLEAR     54  49  83 S8        29.80F
GRAND FORKS AF CLEAR     57  50  79 SW7       29.80F
DEVILS LAKE    PTCLDY    57  46  67 W7        29.80F
FARGO          MOCLDY    50  48  93 S6        29.85F
CAVALIER       FAIR      55  54  94 S9        29.78F
GRAFTON        FAIR      52  52 100 S8        29.80F
LANGDON        FAIR      55  54  94 S6        29.80F
ROLLA          CLOUDY    59  43  55 W9        29.83R
WALHALLA         N/A     59  57  94 SW5       29.77F
$$

CITY           SKY/WX    TMP DP  RH WIND       PRES   REMARKS
ABERDEEN       PTCLDY    49  47  93 CALM      29.88S
MOBRIDGE       CLOUDY    54  54 100 CALM      29.90S
RAPID CITY     CLOUDY    52  51  97 NE3       29.95S
GLASGOW        CLEAR     52  45  77 E10       29.89S
SIDNEY         CLEAR     46  43  87 CALM      29.93S
WOLF POINT     CLEAR     46  42  86 CALM      29.91S
GLENDIVE       CLEAR     46  45  93 S6        29.94S
MILES CITY     CLEAR     50  50 100 SE7       29.92S
BAKER          FOG       44  43  96 CALM      29.96R VSB 1/2
$$

CITY           SKY/WX    TMP DP  RH WIND       PRES   REMARKS
BILLINGS       PTCLDY    51  46  83 NE6       29.89S
GREAT FALLS    CLOUDY    50  49  96 W3        29.91F
$$



USA.gov is the U.S. government's official web portal to all federal, state and local government web resources and services.